FW6919 Weather Reports


Display with metric or nautical units.
time (UTC)temp
F
wind
direction
speed
MPH
gust
MPH
rain 1hr
in
rain 24hr
in
rain mn
in
humidity
%
barometer
mb
20260906131946 81 167 3.0 5.0 0.00 0.00 0.00 81 1015.3
20260906131542 81 168 1.0 5.0 0.00 0.00 0.00 82 1015.2
20260906131028 80 169 2.0 4.0 0.00 0.00 0.00 82 1015.3
20260906130514 80 169 2.0 4.0 0.00 0.00 0.00 83 1015.2
20260906125954 79 169 1.0 2.0 0.00 0.00 0.00 84 1015.2
20260906125444 79 169 1.0 2.0 0.00 0.00 0.00 85 1015.2
20260906124931 79 0 0.0 3.0 0.00 0.00 0.00 85 1015.1
20260906124425 78 35 2.0 3.0 0.00 0.00 0.00 86 1015.0
20260906123922 78 34 2.0 3.0 0.00 0.00 0.00 86 1015.1
20260906123413 78 30 1.0 2.0 0.00 0.00 0.00 86 1014.9
20260906122913 78 27 1.0 2.0 0.00 0.00 0.00 85 1015.0
20260906122416 78 0 0.0 2.0 0.00 0.00 0.00 85 1014.8
20260906121913 78 26 2.0 2.0 0.00 0.00 0.00 85 1014.8
20260906121413 78 0 0.0 2.0 0.00 0.00 0.00 85 1014.7
20260906120904 78 0 0.0 2.0 0.00 0.00 0.00 85 1014.6
20260906120405 78 27 1.0 2.0 0.00 0.00 0.00 85 1014.6
20260906115904 78 0 0.0 0.0 0.00 0.00 0.00 85 1014.5
20260906115402 78 0 0.0 0.0 0.00 0.00 0.00 85 1014.6
20260906114900 78 0 0.0 0.0 0.00 0.00 0.00 85 1014.4
20260906114402 78 0 0.0 0.0 0.00 0.00 0.00 85 1014.4
20260906113902 78 0 0.0 0.0 0.00 0.00 0.00 84 1014.2
20260906113402 78 0 0.0 0.0 0.00 0.00 0.00 85 1014.2
20260906112900 78 0 0.0 0.0 0.00 0.00 0.00 84 1014.4
20260906112402 78 0 0.0 0.0 0.00 0.00 0.00 84 1014.2
20260906111859 78 0 0.0 0.0 0.00 0.00 0.00 84 1014.2
20260906111359 78 0 0.0 2.0 0.00 0.00 0.00 84 1014.1
20260906110859 79 0 0.0 3.0 0.00 0.00 0.00 84 1014.1
20260906110400 79 0 0.0 3.0 0.00 0.00 0.00 84 1014.2
20260906105902 79 22 1.0 3.0 0.00 0.00 0.00 83 1014.1
20260906105359 79 22 1.0 4.0 0.00 0.00 0.00 83 1014.1
20260906104859 79 21 1.0 4.0 0.00 0.00 0.00 83 1014.0
20260906104400 79 20 2.0 4.0 0.00 0.00 0.00 83 1014.0
20260906103859 79 0 0.0 2.0 0.00 0.00 0.00 83 1014.1
20260906103402 79 0 0.0 2.0 0.00 0.00 0.00 82 1014.1
20260906102858 79 22 1.0 2.0 0.00 0.00 0.00 82 1014.1
20260906102356 80 22 1.0 2.0 0.00 0.00 0.00 81 1013.9
20260906101857 80 22 1.0 1.0 0.00 0.00 0.00 80 1013.9
20260906101357 80 0 0.0 0.0 0.00 0.00 0.00 80 1013.9
20260906100855 80 0 0.0 1.0 0.00 0.00 0.00 80 1013.9
20260906100356 80 0 0.0 1.0 0.00 0.00 0.00 80 1013.8
20260906095855 80 0 0.0 2.0 0.00 0.00 0.00 80 1013.8
20260906095355 80 0 0.0 2.0 0.00 0.00 0.00 79 1013.7
20260906094854 81 0 0.0 2.0 0.00 0.00 0.00 79 1013.7
20260906094355 81 0 0.0 2.0 0.00 0.00 0.00 79 1013.7
20260906093853 81 169 1.0 2.0 0.00 0.00 0.00 78 1013.6
20260906093353 81 0 0.0 2.0 0.00 0.00 0.00 78 1013.6
20260906092855 81 169 1.0 2.0 0.00 0.00 0.00 78 1013.4
20260906092353 81 170 2.0 2.0 0.00 0.00 0.00 78 1013.4
20260906091851 81 170 1.0 4.0 0.00 0.00 0.00 78 1013.3
20260906091353 81 170 1.0 5.0 0.00 0.00 0.00 78 1013.4
20260906090851 81 170 2.0 5.0 0.00 0.00 0.00 78 1013.4
20260906090352 81 170 2.0 4.0 0.00 0.00 0.00 77 1013.3
20260906085852 82 170 4.0 5.0 0.00 0.00 0.00 77 1013.3
20260906085352 82 171 1.0 6.0 0.00 0.00 0.00 76 1013.3
20260906084851 82 173 1.0 6.0 0.00 0.00 0.00 76 1013.3
20260906084351 82 176 2.0 4.0 0.00 0.00 0.00 76 1013.4
20260906083848 82 180 1.0 5.0 0.00 0.00 0.00 76 1013.3
20260906083351 82 182 2.0 5.0 0.00 0.00 0.00 76 1013.3
20260906082850 83 198 2.0 6.0 0.00 0.00 0.00 75 1013.4
20260906082349 83 188 2.0 8.0 0.00 0.00 0.00 75 1013.4
20260906081849 83 178 3.0 8.0 0.00 0.00 0.00 75 1013.4
20260906081348 83 172 5.0 7.0 0.00 0.00 0.00 75 1013.3
20260906080849 83 205 4.0 8.0 0.00 0.00 0.00 74 1013.3
20260906080348 83 223 3.0 8.0 0.00 0.00 0.00 74 1013.2
20260906075849 83 218 4.0 8.0 0.00 0.00 0.00 74 1013.3
20260906075348 83 221 5.0 8.0 0.00 0.00 0.00 74 1013.3
20260906074848 83 216 5.0 5.0 0.00 0.00 0.00 74 1013.5
20260906074347 83 214 3.0 8.0 0.00 0.00 0.00 74 1013.6
20260906073848 84 233 4.0 8.0 0.00 0.00 0.00 74 1013.6
20260906073345 84 164 4.0 10.0 0.00 0.00 0.00 74 1013.6
20260906072846 84 200 2.0 10.0 0.00 0.00 0.00 73 1013.7
20260906072345 84 188 3.0 10.0 0.00 0.00 0.00 73 1013.7
20260906071945 84 141 7.0 8.0 0.00 0.00 0.00 74 1013.7
20260906071446 84 191 3.0 8.0 0.00 0.00 0.00 73 1013.6
20260906070951 84 180 5.0 6.0 0.00 0.00 0.00 74 1013.7
20260906070451 84 182 3.0 8.0 0.00 0.00 0.00 74 1013.6
20260906070046 84 182 3.0 8.0 0.00 0.00 0.00 74 1013.6
20260906065644 84 184 3.0 8.0 0.00 0.00 0.00 74 1013.6
20260906065144 84 199 3.0 7.0 0.00 0.00 0.00 74 1013.7
20260906064642 84 174 3.0 7.0 0.00 0.00 0.00 74 1013.9
20260906064144 84 187 3.0 7.0 0.00 0.00 0.00 73 1013.8
20260906063643 84 192 4.0 5.0 0.00 0.00 0.00 73 1013.7
20260906063144 84 205 3.0 6.0 0.00 0.00 0.00 73 1013.7
20260906062643 84 209 2.0 6.0 0.00 0.00 0.00 73 1013.8
20260906062143 84 193 3.0 6.0 0.00 0.00 0.00 73 1013.7
20260906061642 84 194 1.0 6.0 0.00 0.00 0.00 73 1013.7
20260906061141 84 173 5.0 5.0 0.00 0.00 0.00 73 1013.6
20260906060641 84 169 2.0 5.0 0.00 0.00 0.00 73 1013.8
20260906060141 85 169 2.0 5.0 0.00 0.00 0.00 73 1013.8
20260906055641 85 0 0.0 5.0 0.00 0.00 0.00 72 1013.9
20260906055140 85 169 4.0 5.0 0.00 0.00 0.00 72 1013.9
20260906054640 85 169 2.0 6.0 0.00 0.00 0.00 72 1013.8
20260906054140 85 169 1.0 6.0 0.00 0.00 0.00 71 1013.8
20260906053639 85 175 2.0 5.0 0.00 0.00 0.00 71 1013.7
20260906053141 85 172 2.0 6.0 0.00 0.00 0.00 71 1013.7
20260906052638 86 173 3.0 6.0 0.00 0.00 0.00 70 1013.8
20260906052140 86 180 4.0 7.0 0.00 0.00 0.00 70 1013.7
20260906051637 86 167 3.0 7.0 0.00 0.00 0.00 70 1014.0
20260906051140 86 158 2.0 7.0 0.00 0.00 0.00 69 1013.9
20260906050638 86 172 2.0 7.0 0.00 0.00 0.00 69 1014.0
20260906050138 86 166 3.0 7.0 0.00 0.00 0.00 69 1013.9
20260906045636 86 169 2.0 6.0 0.00 0.00 0.00 69 1013.9
20260906045137 86 163 2.0 6.0 0.00 0.00 0.00 68 1013.9
20260906044635 86 161 4.0 6.0 0.00 0.00 0.00 68 1014.0
20260906044137 86 167 3.0 6.0 0.00 0.00 0.00 68 1013.9
20260906043634 87 166 3.0 6.0 0.00 0.00 0.00 67 1013.9
20260906043136 87 163 2.0 7.0 0.00 0.00 0.00 67 1013.7
20260906042635 87 146 2.0 7.0 0.00 0.00 0.00 67 1013.5
20260906042135 87 185 3.0 7.0 0.00 0.00 0.00 67 1013.6
20260906041635 87 173 5.0 10.0 0.00 0.00 0.00 66 1013.6
20260906041134 87 163 4.0 10.0 0.00 0.00 0.00 66 1013.6
20260906040634 87 172 6.0 9.0 0.00 0.00 0.00 66 1013.7
20260906040133 87 158 3.0 9.0 0.00 0.00 0.00 65 1013.6
20260906035632 88 168 6.0 10.0 0.00 0.00 0.00 65 1013.5
20260906035133 88 168 4.0 11.0 0.00 0.00 0.00 65 1013.7
20260906034633 88 165 4.0 12.0 0.00 0.00 0.00 65 1013.7
20260906034132 88 201 4.0 12.0 0.00 0.00 0.00 64 1013.7
20260906033632 88 188 5.0 11.0 0.00 0.00 0.00 64 1013.7
20260906033131 88 184 3.0 10.0 0.00 0.00 0.00 64 1013.7
20260906032632 88 145 9.0 10.0 0.00 0.00 0.00 64 1013.8
20260906032131 88 148 6.0 10.0 0.00 0.00 0.00 63 1013.8
20260906031632 88 175 6.0 10.0 0.00 0.00 0.00 63 1013.8
20260906031130 88 142 3.0 10.0 0.00 0.00 0.00 63 1013.7
20260906030631 89 153 3.0 9.0 0.00 0.00 0.00 63 1013.7
20260906030131 89 165 6.0 10.0 0.00 0.00 0.00 62 1013.7
20260906025632 89 144 3.0 11.0 0.00 0.00 0.00 62 1013.8
20260906025130 89 162 8.0 13.0 0.00 0.00 0.00 61 1013.7
20260906024630 89 188 4.0 13.0 0.00 0.00 0.00 61 1013.6
20260906024129 89 148 3.0 13.0 0.00 0.00 0.00 61 1013.4
20260906023628 89 221 9.0 16.0 0.00 0.00 0.00 60 1013.4
20260906023130 90 176 7.0 16.0 0.00 0.00 0.00 60 1013.3
20260906022629 90 173 10.0 14.0 0.00 0.00 0.00 60 1013.2
20260906022129 90 165 5.0 14.0 0.00 0.00 0.00 60 1013.2
20260906021629 90 169 6.0 14.0 0.00 0.00 0.00 59 1013.1
20260906021129 90 143 13.0 12.0 0.00 0.00 0.00 59 1013.0
20260906020630 91 161 4.0 12.0 0.00 0.00 0.00 59 1012.9
20260906020130 91 140 7.0 11.0 0.00 0.00 0.00 58 1012.8
20260906015628 91 146 3.0 16.0 0.00 0.00 0.00 58 1012.8
20260906015127 91 113 7.0 16.0 0.00 0.00 0.00 57 1012.6
20260906014628 91 195 5.0 15.0 0.00 0.00 0.00 57 1012.5
20260906014128 92 26 5.0 15.0 0.00 0.00 0.00 56 1012.4
20260906013629 92 155 6.0 15.0 0.00 0.00 0.00 55 1012.3
20260906013129 93 128 10.0 15.0 0.00 0.00 0.00 54 1012.3
20260906012627 93 156 7.0 17.0 0.00 0.00 0.00 53 1012.1
20260906012128 94 136 8.0 17.0 0.00 0.00 0.00 52 1011.9
20260906011626 94 131 3.0 6.0 0.00 0.00 0.00 49 1011.8
20260906011126 94 114 3.0 6.0 0.00 0.00 0.00 49 1011.7
20260906010626 94 114 2.0 6.0 0.00 0.00 0.00 48 1011.7
20260906010126 94 105 3.0 6.0 0.00 0.00 0.00 48 1011.7
20260906005625 95 105 1.0 7.0 0.00 0.00 0.00 48 1011.8
20260906005126 95 112 2.0 7.0 0.00 0.00 0.00 47 1011.6
20260906004625 95 120 4.0 7.0 0.00 0.00 0.00 47 1011.7
20260906004125 95 119 1.0 11.0 0.00 0.00 0.00 47 1011.7
20260906003624 96 118 6.0 11.0 0.00 0.00 0.00 46 1011.6
20260906003126 96 142 10.0 11.0 0.00 0.00 0.00 46 1011.6
20260906002624 96 126 8.0 10.0 0.00 0.00 0.00 45 1011.6
20260906002125 96 113 3.0 7.0 0.00 0.00 0.00 45 1011.5
20260906001624 96 110 6.0 7.0 0.00 0.00 0.00 45 1011.7
20260906001128 97 105 3.0 7.0 0.00 0.00 0.00 44 1011.6
20260906000623 97 93 4.0 9.0 0.00 0.00 0.00 44 1011.5
20260906000124 97 103 4.0 9.0 0.00 0.00 0.00 44 1011.5
20260905235622 97 81 7.0 9.0 0.00 0.00 0.00 45 1011.5
20260905235123 97 88 4.0 9.0 0.00 0.00 0.00 45 1011.4
20260905234623 97 177 2.0 7.0 0.00 0.00 0.00 44 1011.4
20260905234123 98 155 6.0 9.0 0.00 0.00 0.00 44 1011.4
20260905233623 98 115 2.0 9.0 0.00 0.00 0.00 44 1011.5
20260905233122 98 112 7.0 9.0 0.00 0.00 0.00 43 1011.4
20260905232622 98 81 2.0 9.0 0.00 0.00 0.00 44 1011.4
20260905232123 98 115 4.0 9.0 0.00 0.00 0.00 43 1011.4
20260905231622 98 66 2.0 8.0 0.00 0.00 0.00 44 1011.5
20260905231124 98 57 6.0 7.0 0.00 0.00 0.00 45 1011.4
20260905230622 98 110 4.0 7.0 0.00 0.00 0.00 45 1011.4
20260905230123 98 134 3.0 8.0 0.00 0.00 0.00 44 1011.4
20260905225621 99 90 2.0 8.0 0.00 0.00 0.00 44 1011.4
20260905225123 99 87 1.0 11.0 0.00 0.00 0.00 44 1011.3
20260905224621 98 263 1.0 12.0 0.00 0.00 0.00 44 1011.4
20260905224120 98 254 4.0 12.0 0.00 0.00 0.00 44 1011.4
20260905223619 98 220 4.0 9.0 0.00 0.00 0.00 45 1011.5
20260905223106 98 124 3.0 9.0 0.00 0.00 0.00 44 1011.5
20260905222630 98 153 3.0 7.0 0.00 0.00 0.00 46 1011.5
20260905222126 98 136 3.0 11.0 0.00 0.00 0.00 45 1011.5
20260905221629 98 135 2.0 11.0 0.00 0.00 0.00 45 1011.6
20260905221131 98 88 2.0 8.0 0.00 0.00 0.00 45 1011.6
20260905220631 98 157 5.0 9.0 0.00 0.00 0.00 44 1011.5
20260905220129 98 150 6.0 12.0 0.00 0.00 0.00 44 1011.5
20260905215631 98 86 2.0 12.0 0.00 0.00 0.00 44 1011.6
20260905215128 98 49 6.0 11.0 0.00 0.00 0.00 44 1011.7
20260905214629 98 140 5.0 11.0 0.00 0.00 0.00 44 1011.8
20260905214129 99 187 4.0 7.0 0.00 0.00 0.00 45 1011.8
20260905213628 98 195 1.0 8.0 0.00 0.00 0.00 44 1011.8
20260905213124 98 172 5.0 8.0 0.00 0.00 0.00 44 1012.0
20260905212629 98 219 2.0 8.0 0.00 0.00 0.00 44 1012.0
20260905212128 98 115 3.0 6.0 0.00 0.00 0.00 43 1012.1
20260905211624 99 105 2.0 8.0 0.00 0.00 0.00 42 1012.1
20260905211122 99 94 2.0 8.0 0.00 0.00 0.00 42 1012.2
20260905210629 99 138 3.0 8.0 0.00 0.00 0.00 42 1012.3
20260905210129 98 306 2.0 6.0 0.00 0.00 0.00 44 1012.3
20260905205627 97 305 3.0 6.0 0.00 0.00 0.00 44 1012.3
20260905205128 96 117 2.0 5.0 0.00 0.00 0.00 45 1012.4
20260905204622 96 218 2.0 7.0 0.00 0.00 0.00 46 1012.5
20260905204127 96 218 5.0 9.0 0.00 0.00 0.00 46 1012.6
20260905203616 97 202 6.0 9.0 0.00 0.00 0.00 45 1012.6
20260905203115 98 150 5.0 9.0 0.00 0.00 0.00 45 1012.7
20260905202615 98 184 4.0 10.0 0.00 0.00 0.00 44 1012.7
20260905202114 98 220 4.0 10.0 0.00 0.00 0.00 44 1012.7
20260905201616 98 218 2.0 9.0 0.00 0.00 0.00 45 1012.9
20260905201114 98 183 3.0 9.0 0.00 0.00 0.00 45 1013.0
20260905200615 98 0 0.0 7.0 0.00 0.00 0.00 46 1013.0
20260905200114 97 229 3.0 8.0 0.00 0.00 0.00 47 1013.2
20260905195613 97 5 3.0 9.0 0.00 0.00 0.00 46 1013.3
20260905195114 96 178 3.0 10.0 0.00 0.00 0.00 48 1013.4
20260905194615 96 213 6.0 10.0 0.00 0.00 0.00 48 1013.4
20260905194241 96 173 2.0 9.0 0.00 0.00 0.00 49 1013.4
20260905193701 95 44 4.0 9.0 0.00 0.00 0.00 49 1013.5
20260905193127 95 134 3.0 9.0 0.00 0.00 0.00 49 1013.5
20260905192612 95 121 9.0 9.0 0.00 0.00 0.00 50 1013.7
20260905192324 95 100 3.0 11.0 0.00 0.00 0.00 50 1013.8
20260905191118 96 219 2.0 12.0 0.00 0.00 0.00 50 1014.1
20260905190614 96 155 6.0 12.0 0.00 0.00 0.00 50 1014.2
20260905190112 96 105 8.0 12.0 0.00 0.00 0.00 50 1014.1
20260905185611 96 57 3.0 11.0 0.00 0.00 0.00 49 1014.3
20260905185113 95 150 2.0 11.0 0.00 0.00 0.00 49 1014.4
20260905184612 96 145 5.0 10.0 0.00 0.00 0.00 49 1014.4
20260905184114 95 255 2.0 10.0 0.00 0.00 0.00 48 1014.5
20260905183614 95 196 4.0 10.0 0.00 0.00 0.00 50 1014.7
20260905183113 95 240 6.0 9.0 0.00 0.00 0.00 48 1014.6
20260905182613 95 0 0.0 11.0 0.00 0.00 0.00 51 1014.7
20260905182112 94 281 2.0 11.0 0.00 0.00 0.00 50 1014.7
20260905181613 94 206 6.0 11.0 0.00 0.00 0.00 51 1014.9
20260905181111 94 188 5.0 9.0 0.00 0.00 0.00 51 1014.8
20260905180612 94 245 2.0 10.0 0.00 0.00 0.00 51 1015.0
20260905180114 94 205 2.0 11.0 0.00 0.00 0.00 51 1015.0
20260905175613 94 209 6.0 11.0 0.00 0.00 0.00 51 1015.2
20260905175112 95 138 7.0 9.0 0.00 0.00 0.00 51 1015.2
20260905174612 94 101 3.0 10.0 0.00 0.00 0.00 50 1015.2
20260905174112 94 161 6.0 10.0 0.00 0.00 0.00 51 1015.2
20260905173610 94 200 3.0 12.0 0.00 0.00 0.00 51 1015.3
20260905173114 93 200 1.0 12.0 0.00 0.00 0.00 53 1015.6
20260905172612 93 150 6.0 11.0 0.00 0.00 0.00 52 1015.4
20260905172111 94 227 2.0 8.0 0.00 0.00 0.00 52 1015.5
20260905171616 94 92 3.0 4.0 0.00 0.00 0.00 53 1015.5
20260905170947 94 201 1.0 5.0 0.00 0.00 0.00 53 1015.6
20260905170451 93 200 1.0 6.0 0.00 0.00 0.00 53 1015.7
20260905165954 92 202 3.0 6.0 0.00 0.00 0.00 54 1015.7
20260905165505 92 313 3.0 7.0 0.00 0.00 0.00 56 1015.7
20260905165016 92 326 2.0 8.0 0.00 0.00 0.00 55 1015.7
20260905164356 92 161 6.0 8.0 0.00 0.00 0.00 55 1015.8
20260905163914 92 225 5.0 8.0 0.00 0.00 0.00 56 1015.9
20260905163255 92 159 5.0 8.0 0.00 0.00 0.00 56 1015.8
20260905162814 91 103 6.0 8.0 0.00 0.00 0.00 57 1015.8
20260905162153 91 176 4.0 8.0 0.00 0.00 0.00 56 1015.9
20260905161715 91 323 4.0 8.0 0.00 0.00 0.00 57 1015.9
20260905161049 91 288 4.0 7.0 0.00 0.00 0.00 57 1015.8
20260905160611 91 286 2.0 7.0 0.00 0.00 0.00 56 1015.9
20260905155958 91 269 4.0 7.0 0.00 0.00 0.00 58 1015.8
20260905155352 90 259 3.0 9.0 0.00 0.00 0.00 59 1015.8
20260905154912 90 218 2.0 9.0 0.00 0.00 0.00 60 1015.8
20260905154252 89 240 2.0 8.0 0.00 0.00 0.00 60 1015.8
20260905153812 90 252 2.0 8.0 0.00 0.00 0.00 61 1015.8
20260905153148 89 282 7.0 8.0 0.00 0.00 0.00 62 1015.8
20260905152712 89 304 7.0 8.0 0.00 0.00 0.00 62 1015.8
20260905152058 88 273 6.0 9.0 0.00 0.00 0.00 62 1015.7
20260905151452 88 238 4.0 9.0 0.00 0.00 0.00 62 1015.8
20260905150849 88 242 1.0 9.0 0.00 0.00 0.00 63 1015.8
20260905150245 88 266 4.0 9.0 0.00 0.00 0.00 63 1015.6
20260905145646 87 281 3.0 11.0 0.00 0.00 0.00 63 1015.6
20260905145215 87 234 7.0 11.0 0.00 0.00 0.00 64 1015.6
20260905144615 87 244 4.0 7.0 0.00 0.00 0.00 67 1015.6
20260905144144 86 263 2.0 7.0 0.00 0.00 0.00 67 1015.6
20260905143716 86 215 5.0 11.0 0.00 0.00 0.00 69 1015.6
20260905143241 86 213 2.0 11.0 0.00 0.00 0.00 69 1015.6
20260905142644 85 243 3.0 11.0 0.00 0.00 0.00 69 1015.6
20260905142047 85 219 3.0 9.0 0.00 0.00 0.00 71 1015.7
20260905141444 84 234 4.0 9.0 0.00 0.00 0.00 73 1015.7
20260905140851 84 189 4.0 7.0 0.00 0.00 0.00 73 1015.6
20260905140259 84 240 4.0 8.0 0.00 0.00 0.00 74 1015.6
20260905135713 84 252 3.0 8.0 0.00 0.00 0.00 74 1015.6
20260905135244 83 293 2.0 4.0 0.00 0.00 0.00 75 1015.6
20260905134649 83 202 1.0 4.0 0.00 0.00 0.00 76 1015.6
20260905134100 83 202 2.0 4.0 0.00 0.00 0.00 77 1015.4
20260905133511 82 209 2.0 4.0 0.00 0.00 0.00 77 1015.4
20260905133046 82 211 2.0 3.0 0.00 0.00 0.00 78 1015.4
20260905132458 81 211 2.0 3.0 0.00 0.00 0.00 79 1015.3